Location: Vihti�l�
(61.3833°N, 23.0667°E)
Time: 05:42:47
(UTC+00:00)

PSLV R/B - Pass Details

Date: 29 November 2020
Orbit: 503 x 578 km, 97.8° (Epoch: 22 January)

Event Time Altitude Azimuth Distance (km) Brightness Sun altitude
Rises 05:26:38 0° 15° (NNE) 2,750 7.3 -10.8°
Reaches altitude 10° 05:28:52 10° 9° (N) 1,838 6.3 -10.6°
Maximum altitude 05:32:38 44° 297° (WNW) 756 4.1 -10.2°
Drops below altitude 10° 05:36:19 10° 225° (SW) 1,782 6.2 -9.8°
Sets 05:38:26 0° 219° (SW) 2,656 7.2 -9.6°
